Regional Weather Roundup
Issued by NWS Grand Forks, ND

Home | Current Version | Previous Version | Graphics & Text | Print | Product List | Glossary On
Versions: 1 2 3 4 5 6 7 8 9 10 11 12 13 14 15 16 17 18 19 20 21 22 23 24 25 26 27 28 29 30 31 32 33 34 35 36 37 38 39 40 41 42 43 44 45 46 47 48 49 50
000
ASUS43 KFGF 291531
RWRFGF
PRAIRIE TO PINES  WEATHER ROUNDUP
NATIONAL WEATHER SERVICE EASTERN NORTH DAKOTA/GRAND FORKS ND
1000 AM CDT WED JUL 29 2015

 **SATELLITE DATA USED TO AUGMENT SKY COVER AT AUTOMATED STATIONS**
 *****  WEATHER ACROSS EASTERN NORTH DAKOTA  *****

CITY           SKY/WX    TMP DP  RH WIND       PRES   REMARKS
GRAND FORKS    MOSUNNY   73  54  51 W26G40    29.72R
GRAND FRKS AFB SUNNY     72  55  56 NW29G43   29.74R SQUALL
GRAND FRKS NWS   N/A     70 N/A N/A NW18        N/A
DEVILS LAKE    SUNNY     70  54  56 W28G36    29.82R
FARGO          SUNNY     73  54  51 W24G35    29.82R
WAHPETON ARPT  SUNNY     73  50  43 W24G33    29.90R
$$

 ***** WEATHER ACROSS CENTRAL AND WESTERN NORTH DAKOTA  *****

CITY           SKY/WX    TMP DP  RH WIND       PRES   REMARKS
BISMARCK       MOSUNNY   72  49  44 W21G29    30.02R
MINOT          SUNNY     70  52  52 W22       29.93R
JAMESTOWN      SUNNY     71  53  52 W23G32    29.90S
MINOT AFB      SUNNY     70  55  60 W22G30    29.91R
GARRISON         N/A     67  53  61 W15G25    29.98R
WILLISTON      PTSUNNY   65  51  60 W18G26    30.04R
DICKINSON      PTSUNNY   65  46  50 W15       30.09R
HETTINGER      SUNNY     68  44  42 W16       30.15R
$$

 *****  OTHER AIRPORT OBSERVATIONS IN OUR AREA  *****

CITY           SKY/WX    TMP DP  RH WIND       PRES   REMARKS
WALHALLA       FAIR      70  55  60 MISG      29.68R
GRAFTON AIRPOR PTSUNNY   72  57  60 W28G37    29.70R
VALLEY CITY AR FAIR      72  55  56 W24G36    29.88R
CANDO          FAIR      68  57  68 W25G31    29.82R
CAVALIER APRT  FAIR      70  55  60 W22G40    29.67R
GWINNER        FAIR      72  54  53 W15G25    29.94R
ROLLA          FAIR      66  55  68 NW23G30   29.82R
 ***** THE ABOVE OBSERVATIONS ARE NON NWS ARE NOT QUALITY
       CONTROLLED AND MAY MIS-REPORT RAIN FOR SNOW...
$$

  *****  WEATHER ACROSS NORTHERN MINNESOTA  *****

CITY           SKY/WX    TMP DP  RH WIND       PRES   REMARKS
FLAG ISLAND    CLOUDY    63  57  82 W20G32    29.50R
WARROAD        CLOUDY    63  59  88 W18G26    29.58R
ROSEAU         CLOUDY    64  57  77 W18G28    29.60R
HALLOCK        CLOUDY    70  55  60 W24G37    29.64R
THF RVR FALLS  CLOUDY   N/A N/A N/A W24G36    29.69S
BAUDETTE       CLOUDY    62  57  83 W20G31    29.57R
WASKISH        CLOUDY    64  59  82 W28G35    29.65R
CROOKSTON      PTSUNNY   70  55  60 NW24G35   29.73R
STEPHEN NDAWN    N/A     68  57  68 W18         N/A
GREENBUSH NDAW   N/A     64  57  77 W15         N/A
$$
  *****  WEATHER ACROSS CENTRAL AND WEST MINNESOTA  *****

CITY           SKY/WX    TMP DP  RH WIND       PRES   REMARKS
FOSSTON        CLOUDY    63  55  77 SW16G31   29.76R
BEMIDJI        LGT RAIN  61  56  83 W16G25    29.74R
PARK RAPIDS    CLOUDY    65  52  62 W23G33    29.80R
ELBOW LAKE     FAIR      70  55  58 W18G31    29.92S
WADENA         MOSUNNY   70  54  56 W26G33    29.84R
DETROIT LAKES  SUNNY     70  52  52 W22G36    29.84R
MOORHEAD       SUNNY     73  54  49 W24G35    29.85R
FERGUS FALLS   SUNNY     72  55  56 W22G31    29.89R
MORRIS MN      SUNNY     73  54  49 W24G32    29.94S
STAPLES        PTSUNNY   68  52  56 W22G30    29.85R
$$
  *****  WEATHER ELSEWHERE ACROSS MINNESOTA  *****

CITY           SKY/WX    TMP DP  RH WIND       PRES   REMARKS
DULUTH         CLOUDY    67  52  58 W21G38    29.74S
INTRNTL FALLS  LGT RAIN  62  57  83 SW14G24   29.58R
ELY            CLOUDY    64  52  63 W20G28    29.65S
CLOQUET        CLOUDY    66  50  55 SW16G29   29.76S
WHEATON        SUNNY     72  54  53 W15G25    29.96S
BRAINERD       CLOUDY    67  52  58 W20G35    29.82R
HIBBING        CLOUDY    64  52  64 SW8G17    29.70S
ALEXANDRIA     SUNNY     71  52  50 W26G39    29.92R
SAINT CLOUD    SUNNY     72  51  47 W25G37    29.89R
MINNEAPOLIS    SUNNY     75  50  41 W24G33    29.94S
$$

  *****  WEATHER ACROSS SOUTH DAKOTA  *****

CITY           SKY/WX    TMP DP  RH WIND       PRES   REMARKS
SIOUX FALLS    MOSUNNY   71  55  56 VRB7      30.13R
BROOKINGS      SUNNY     70  52  52 W20G25    30.10S
WATERTOWN      SUNNY     69  51  52 W20       30.05R
HURON          SUNNY     72  52  49 W12       30.09R
SISSETON         N/A     72  52  49 W21G28    29.95R
ABERDEEN       SUNNY     73  50  44 W17G25    30.03R
MITCHELL       SUNNY     75  52  44 W14G21    30.13R
PIERRE         SUNNY     73  48  41 SW8       30.12S
MOBRIDGE       SUNNY     74  48  39 W16       30.06R
RAPID CITY     SUNNY     72  44  36 W12       30.26R
$$

  *****  SOME WEATHER IN NEARBY STATES *****

CITY           SKY/WX    TMP DP  RH WIND       PRES   REMARKS
GLASGOW MT     SUNNY     64  50  60 CALM      30.13R
GREAT FALLS MT SUNNY     65  41  41 SW14      30.24R
CHEYENNE WY    SUNNY     61  37  41 N3        30.38S
SCOTTSBLUFF NE SUNNY     63  47  55 E8        30.34S
OMAHA NE       MOSUNNY   75  66  73 NW5       30.18R
DES MOINES IA  PTSUNNY   79  59  50 NW7       30.11S
DAVENPORT IA   PTSUNNY   78  66  66 N9        30.06R
CHICAGO IL     PTSUNNY   82  72  71 NW12      29.96R
EAU CLAIRE WI  SUNNY     74  52  46 W21G32    29.92R
LA CROSSE WI   SUNNY     77  51  40 W14G25    29.97F
$$

  *****  SOME NATIONAL WEATHER *****

CITY           SKY/WX    TMP DP  RH WIND       PRES   REMARKS
LA GUARDIA NY  PTSUNNY   91  66  43 NE8       29.98S HX  93
RALEIGH NC     PTSUNNY   81  71  71 SE3       30.06R
ATLANTA GA     MOSUNNY   85  73  67 NW6       30.03F HX  91
NEW ORLEANS LA PTSUNNY   88  75  65 NW10      30.04S HX  97
OKLAHOMA CITY  SUNNY     84  71  65 S7        30.06R
ALBUQUERQUE NM PTSUNNY   72  55  55 N6        30.31R
SALT LAKE CITY SUNNY     66  34  30 CALM      30.30R
LOS ANGELES CA CLOUDY    66  63  90 SW3       29.95R
BOISE ID       SUNNY     67  36  31 SE7       30.26R
SEATTLE WA     MOSUNNY   65  55  70 NW6       30.21R
$$

*** WEATHER ACROSS MANITOBA...SASKATCHEWAN AND ONTARIO ***
                ***ONTARIO***

CITY           SKY/WX    TMP DP  RH WIND       PRES   REMARKS
GERALDTON      MOSUNNY   73  55  53 S17G25    29.54F
THUNDER BAY    CLOUDY    68  54  60 SW14      29.59F
SIOUX LOOKOUT  LGT RAIN  61  59  94 SW9G20    29.41S FOG
TORONTO        PTSUNNY   86  66  51 S6        29.97S
BIG TROUT LK   CLOUDY    70  61  73 S8        29.29F
PICKLE LAKE    LGT RAIN  61  57  88 S15G24    29.35F FOG
DRYDEN         CLOUDY    63  59  88 SW22G31   29.42F
KENORA         LGT RAIN  63  61  94 W17G30    29.45R FOG
$$
                *** MANITOBA***

CITY           SKY/WX    TMP DP  RH WIND       PRES   REMARKS
BRANDON        PTSUNNY   66  57  72 NW25G36   29.73R
DAUPHIN        SUNNY     68  55  64 NW16G30   29.65R
ISLAND LAKE    MOSUNNY   68  61  77 W6        29.25F
PILOT MOUND      N/A     66  55  68 W20G32      N/A
THE PAS        MOSUNNY   66  57  72 NW21G30   29.60R
THOMPSON       LGT RAIN  57  55  94 N17G28    29.42R FOG
WINNIPEG       CLOUDY    64  59  82 W23G33    29.57R
LYNN LAKE        N/A    N/A N/A N/A MISG        N/A
CHURCHILL      LGT RAIN  50  48  93 N20       29.56F FOG
GILLAM         HVY RAIN  55  55 100 NE20G32   29.32R VSB 1/2
$$
                ***SASKATCHEWAN***

CITY           SKY/WX    TMP DP  RH WIND       PRES   REMARKS
ESTEVAN        PTSUNNY   66  55  68 W17G26    29.96R
KINDERSLEY     MOSUNNY   64  52  63 NW10      30.04R
LLOYDMINSTER   MOSUNNY   64  48  55 W10G21    29.98S
PRINCE ALBERT  MOSUNNY   66  57  72 NW10      29.84S
REGINA         PTSUNNY   66  55  68 NW17      29.96R
YORKTON        SUNNY     68  54  60 W15G24    29.80R
N. BATTLEFORD    N/A     64  50  59 W15       29.97R
LA RONGE       MOSUNNY   68  52  56 NW14      29.79R
SASKATOON      MOSUNNY   66  54  63 NW14      29.94R
SWIFT CURRENT  SUNNY     64  50  59 MISG      30.07R
$$
NOTE: THESE ARE AUTOMATED STATIONS WITH LIMITED QUALITY CONTROL
      "FAIR" INDICATES FEW OR NO CLOUDS BELOW 12,000 FEET WITH NO
      SIGNIFICANT WEATHER AND/OR OBSTRUCTIONS TO VISIBILITY.
      SKY/WX - SKY CONDITION AND SIGNIFICANT WEATHER.
      TMP - AIR TEMPERATURE.    DP   - DEWPOINT TEMPERATURE.
      RH  - RELATIVE HUMIDITY.  PRES - PRESSURE.
      HX  - HEAT INDEX.         WCI  - WIND CHILL INDEX.
$



USA.gov is the U.S. government's official web portal to all federal, state and local government web resources and services.